LEMUR-2-ANDIS (42838 NORAD) Tracking and Keplerian Element Data

This shows tracking and keplerian element data for the satellite.

Feedback or suggestion? Click here.




ElementValue
Catalog42838
NameLEMUR-2-ANDIS
Epoch Orbit3211
Epoch Day45.80283763
Epoch Year2018
RAAN312.8577
Inclination97.6072
Eccentricity0.0011885
Argument of Perigee242.952
Mean Anonmoly117.0486
Mean Motion14.91348747
Decay Rate6.64E-06
L11 42838U 17042P 18045.80283763 .00000664 00000-0 71925-4 0 9998
L22 42838 97.6072 312.8577 0011885 242.9520 117.0486 14.91348747 32110

Live tracking and technical data element details for LEMUR-2-ANDIS (NORAD 42838). LEMUR-2-ANDIS can be tracked NOW for your location showing map with azimuth and elevation plus other details from your city location.

Track the satellite on the map from your city or location and see movement details for azimuth, elevation, latitude, longitude, range, height, and movement on the map or in text.







IsCatalogInMostPopularTable: catalog: 42838, numindb: 143
Update: records affected: 1



GetName: 42838 LEMUR-2-ANDIS

Hit Count: updated at: Wed, 14 Nov 2018 15:14:22 GMT